| time (UTC) | temp F | wind direction | speed MPH | gust MPH | rain 1hr in | rain 24hr in | rain mn in | humidity % | barometer mb |
| 20260505052942 | 51 | 291 | 1.0 | 2.0 | 0.00 | 0.00 | 0.00 | 82 | 1010.4 |
| 20260505052001 | 51 | 307 | 0.0 | 1.0 | 0.00 | 0.00 | 0.00 | 81 | 1010.4 |
| 20260505050946 | 52 | 312 | 1.0 | 2.0 | 0.00 | 0.00 | 0.00 | 80 | 1010.2 |
| 20260505040957 | 53 | 275 | 1.0 | 2.0 | 0.00 | 0.00 | 0.00 | 76 | 1010.5 |
| 20260505040022 | 53 | 306 | 1.0 | 2.0 | 0.00 | 0.00 | 0.00 | 76 | 1010.5 |
| 20260505035001 | 53 | 304 | 1.0 | 2.0 | 0.00 | 0.00 | 0.00 | 75 | 1010.6 |
| 20260505033946 | 54 | 310 | 0.0 | 2.0 | 0.00 | 0.00 | 0.00 | 74 | 1010.4 |
| 20260505033005 | 54 | 304 | 1.0 | 3.0 | 0.00 | 0.00 | 0.00 | 73 | 1010.2 |
| 20260505032030 | 54 | 297 | 2.0 | 3.0 | 0.00 | 0.00 | 0.00 | 72 | 1010.3 |
| 20260505031008 | 54 | 279 | 1.0 | 2.0 | 0.00 | 0.00 | 0.00 | 71 | 1010.3 |
| 20260505025954 | 55 | 305 | 2.0 | 6.0 | 0.00 | 0.00 | 0.00 | 70 | 1010.5 |
| 20260505024940 | 55 | 304 | 1.0 | 2.0 | 0.00 | 0.00 | 0.00 | 69 | 1010.6 |
| 20260505023959 | 55 | 307 | 2.0 | 3.0 | 0.00 | 0.00 | 0.00 | 68 | 1010.5 |
| 20260505022944 | 55 | 269 | 1.0 | 2.0 | 0.00 | 0.00 | 0.00 | 67 | 1010.5 |
| 20260505022004 | 56 | 288 | 2.0 | 5.0 | 0.00 | 0.00 | 0.00 | 66 | 1010.4 |
| 20260505020949 | 56 | 305 | 1.0 | 3.0 | 0.00 | 0.00 | 0.00 | 65 | 1010.4 |
| 20260505020008 | 56 | 291 | 2.0 | 2.0 | 0.00 | 0.00 | 0.00 | 63 | 1010.4 |
| 20260505014952 | 57 | 299 | 1.0 | 5.0 | 0.00 | 0.00 | 0.00 | 62 | 1010.4 |
| 20260505014011 | 57 | 293 | 1.0 | 3.0 | 0.00 | 0.00 | 0.00 | 61 | 1010.3 |
| 20260505012957 | 57 | 304 | 1.0 | 2.0 | 0.00 | 0.00 | 0.00 | 59 | 1010.3 |
| 20260505011942 | 57 | 299 | 1.0 | 3.0 | 0.00 | 0.00 | 0.00 | 58 | 1010.0 |
| 20260505011001 | 58 | 294 | 1.0 | 2.0 | 0.00 | 0.00 | 0.00 | 57 | 1009.8 |
| 20260505005946 | 58 | 308 | 2.0 | 6.0 | 0.00 | 0.00 | 0.00 | 57 | 1009.5 |
| 20260505005005 | 59 | 286 | 2.0 | 5.0 | 0.00 | 0.00 | 0.00 | 56 | 1009.5 |
| 20260505003951 | 59 | 285 | 2.0 | 5.0 | 0.00 | 0.00 | 0.00 | 55 | 1009.2 |
| 20260505003009 | 59 | 290 | 2.0 | 2.0 | 0.00 | 0.00 | 0.00 | 55 | 1009.2 |
| 20260505001955 | 59 | 273 | 3.0 | 6.0 | 0.00 | 0.00 | 0.00 | 56 | 1008.8 |
| 20260505001012 | 59 | 313 | 2.0 | 5.0 | 0.00 | 0.00 | 0.00 | 55 | 1008.5 |
| 20260504235957 | 60 | 287 | 2.0 | 6.0 | 0.00 | 0.00 | 0.00 | 54 | 1008.4 |
| 20260504235036 | 61 | 284 | 3.0 | 7.0 | 0.00 | 0.00 | 0.00 | 52 | 1008.3 |
| 20260504234042 | 62 | 296 | 3.0 | 6.0 | 0.00 | 0.00 | 0.00 | 50 | 1008.0 |
| 20260504232948 | 63 | 283 | 3.0 | 9.0 | 0.00 | 0.00 | 0.00 | 46 | 1007.9 |
| 20260504232006 | 64 | 311 | 3.0 | 7.0 | 0.00 | 0.00 | 0.00 | 45 | 1007.6 |
| 20260504230951 | 64 | 285 | 4.0 | 8.0 | 0.00 | 0.00 | 0.00 | 45 | 1007.5 |
| 20260504230030 | 65 | 283 | 3.0 | 10.0 | 0.00 | 0.00 | 0.00 | 45 | 1007.3 |
| 20260504224955 | 65 | 280 | 3.0 | 7.0 | 0.00 | 0.00 | 0.00 | 45 | 1007.1 |
| 20260504224013 | 66 | 296 | 5.0 | 10.0 | 0.00 | 0.00 | 0.00 | 44 | 1006.9 |
| 20260504222959 | 66 | 268 | 6.0 | 10.0 | 0.00 | 0.00 | 0.00 | 43 | 1006.9 |
| 20260504222018 | 67 | 295 | 3.0 | 7.0 | 0.00 | 0.00 | 0.00 | 42 | 1006.9 |
| 20260504221004 | 67 | 243 | 4.0 | 6.0 | 0.00 | 0.00 | 0.00 | 42 | 1006.8 |
| 20260504220023 | 68 | 299 | 3.0 | 9.0 | 0.00 | 0.00 | 0.00 | 40 | 1006.7 |
| 20260504215008 | 68 | 251 | 4.0 | 8.0 | 0.00 | 0.00 | 0.00 | 39 | 1006.9 |
| 20260504213953 | 68 | 274 | 4.0 | 5.0 | 0.00 | 0.00 | 0.00 | 39 | 1006.8 |
| 20260504213011 | 69 | 281 | 4.0 | 8.0 | 0.00 | 0.00 | 0.00 | 37 | 1006.5 |
| 20260504212016 | 69 | 293 | 3.0 | 6.0 | 0.00 | 0.00 | 0.00 | 36 | 1006.6 |
| 20260504211030 | 70 | 262 | 4.0 | 6.0 | 0.00 | 0.00 | 0.00 | 33 | 1006.6 |
| 20260504205955 | 70 | 269 | 4.0 | 7.0 | 0.00 | 0.00 | 0.00 | 33 | 1006.4 |
| 20260504205013 | 70 | 263 | 2.0 | 6.0 | 0.00 | 0.00 | 0.00 | 33 | 1006.4 |
| 20260504203959 | 71 | 269 | 3.0 | 9.0 | 0.00 | 0.00 | 0.00 | 32 | 1006.6 |
| 20260504203017 | 70 | 295 | 3.0 | 7.0 | 0.00 | 0.00 | 0.00 | 33 | 1006.5 |
| 20260504202023 | 70 | 309 | 2.0 | 3.0 | 0.00 | 0.00 | 0.00 | 33 | 1006.4 |
| 20260504201022 | 71 | 289 | 4.0 | 6.0 | 0.00 | 0.00 | 0.00 | 31 | 1006.6 |
| 20260504200007 | 71 | 282 | 6.0 | 14.0 | 0.00 | 0.00 | 0.00 | 31 | 1006.4 |
| 20260504195026 | 70 | 249 | 4.0 | 9.0 | 0.00 | 0.00 | 0.00 | 31 | 1006.5 |
| 20260504194011 | 70 | 276 | 5.0 | 9.0 | 0.00 | 0.00 | 0.00 | 31 | 1006.5 |
| 20260504192956 | 70 | 284 | 4.0 | 7.0 | 0.00 | 0.00 | 0.00 | 32 | 1006.6 |
| 20260504192015 | 71 | 265 | 4.0 | 7.0 | 0.00 | 0.00 | 0.00 | 32 | 1006.6 |
| 20260504191000 | 71 | 281 | 4.0 | 8.0 | 0.00 | 0.00 | 0.00 | 31 | 1006.6 |
| 20260504190019 | 70 | 271 | 4.0 | 6.0 | 0.00 | 0.00 | 0.00 | 32 | 1006.8 |
| 20260504185024 | 71 | 278 | 5.0 | 7.0 | 0.00 | 0.00 | 0.00 | 32 | 1006.7 |
| 20260504184022 | 70 | 272 | 4.0 | 7.0 | 0.00 | 0.00 | 0.00 | 31 | 1007.0 |
| 20260504183027 | 71 | 265 | 5.0 | 8.0 | 0.00 | 0.00 | 0.00 | 31 | 1007.3 |
| 20260504182026 | 70 | 292 | 2.0 | 7.0 | 0.00 | 0.00 | 0.00 | 32 | 1007.0 |
| 20260504181032 | 70 | 264 | 4.0 | 7.0 | 0.00 | 0.00 | 0.00 | 31 | 1007.1 |
| 20260504180030 | 70 | 281 | 6.0 | 10.0 | 0.00 | 0.00 | 0.00 | 30 | 1007.4 |
| 20260504175016 | 70 | 286 | 6.0 | 10.0 | 0.00 | 0.00 | 0.00 | 30 | 1007.3 |
| 20260504174002 | 69 | 282 | 4.0 | 8.0 | 0.00 | 0.00 | 0.00 | 32 | 1007.4 |
| 20260504173020 | 70 | 239 | 4.0 | 9.0 | 0.00 | 0.00 | 0.00 | 31 | 1007.4 |
| 20260504171932 | 69 | 279 | 4.0 | 9.0 | 0.00 | 0.00 | 0.00 | 31 | 1007.3 |
| 20260504170918 | 69 | 256 | 7.0 | 11.0 | 0.00 | 0.00 | 0.00 | 31 | 1007.7 |
| 20260504150951 | 65 | 291 | 4.0 | 6.0 | 0.00 | 0.00 | 0.00 | 37 | 1008.8 |
| 20260504141001 | 63 | 247 | 2.0 | 7.0 | 0.00 | 0.00 | 0.00 | 41 | 1009.2 |
| 20260504081927 | 46 | 0.0 | 0.0 | 0.00 | 0.00 | 0.00 | 57 | 1010.1 | |
| 20260504081125 | 46 | 0.0 | 0.0 | 0.00 | 0.00 | 0.00 | 56 | 1010.1 |